SL-16 DEB, 20629

Orbit data source: Space-Track

SL-16 DEB, 20629 is space debris in LEO originally from a launch on Tue, 22 May 1990 UTC launched from the Tyuratam Missile And Space Complex (TTMTR). Debris objects in space refer to the collection of defunct objects orbiting the Earth. Examples of debris include non-operational satellites, rocket bodies, and fragments generated from explosions, collisions, or faulty payload assembly.

Loading next visibility...
Identifier
20629, 1990-046F
Orbit
LEO
Country
Flag of CISCIS
Related business
Manufacturer
Yuzhnoe
Mission
Spacecraft
Bus & Motor
SEP MOTOR COVER, Unknown motor
Mass
~0 kg wet, ~1 kg dry
Launch date (UTC)
1990-05-22 (36 years ago)
Launch vehicle
Unknown
Launch site
Tyuratam Missile And Space Complex (TTMTR)
Object type
Payload
Rocket body
Debris
Shape & HBR
Unknown shape, 0.1 m
Radar Cross Section
Small (<0.1 m²)

Expand to show TLE details & history
Last TLE update: 17 hours ago

TLE from 17 hours ago
0 SL-16 DEB
1 20629U 90046F   25348.89305666  .00000072  00000-0  10591-3 0  9991
2 20629  71.0207 163.2495 0199622 326.4095 144.3299 13.74120507782465
Epoch: 2025-12-14T21:26Z
TLE epoch observation values (Epoch: 2025-12-14T21:26:00.095Z)
Latitude
61.32544°
Longitude
-100.78016°
Altitude
1,115.151 km
Speed
7.241 km/s
True Right ascension
20h 18m 04s
True Declination
61° 11' 14"
Sunlit
Object was in daylight at epoch
Visualization orbit readout
Latitude
Unknown
Longitude
Unknown
Altitude
Unknown
Speed
Unknown
Apparent Right ascension
Unknown
Apparent Declination
Unknown
Sunlit
N/A
Visualization observer readout
Local Sidereal Time
13:25:37
Azimuth
Unknown
Elevation
Unknown
Doppler factor
Unknown
Orbital elements
Apogee altitude
1,129.717 km
Perigee altitude
835.837 km
Semi-major axis
7,360.914 km
Eccentricity
0.01996
Inclination
71.0207°
RAAN
163.2495°
Arg. of periapsis
326.4095°
True anomaly
145.63714°
Mean anomaly
144.3299°
Eccentric anomaly
144.98615°
Mean motion
3.43673 °/min
Orbital period
104.75 mins
BSTAR
0.00010591
Loading maneuver chart data...
Computing Atmospheric mass density...
Loading historical data...
Loading historical data...
Loading historical data...
Loading historical data...
Loading historical data...
Loading historical data...
Loading historical data...
Other satellites on launch #46 in the year 1990 (1990-05-22 UTC)

Documentation

Showing up to 5 results
|